Regional Weather Roundup
Issued by NWS Goodland, KS

Home | Current Version | Previous Version | Text Only | Print | Product List | Glossary On
Versions: 1 2 3 4 5 6 7 8 9 10 11 12 13 14 15 16 17 18 19 20 21 22 23 24 25 26 27 28 29 30 31 32 33 34 35 36 37 38 39 40 41 42 43 44 45 46 47 48 49 50
000
ASUS43 KGLD 250808
RWRGLD

GOODLAND FORECAST AREA HOURLY WEATHER ROUNDUP
NATIONAL WEATHER SERVICE GOODLAND KS
200 AM MDT FRI APR 25 2014

...OFFICIAL OBSERVATIONS...

CITY           SKY/WX    TMP DP  RH WIND       PRES   REMARKS
GOODLAND KS    PTCLDY    50  17  27 S12       29.90F
HILL CITY KS   CLEAR     50  30  46 SW7       29.87F
IMPERIAL NEB   CLEAR     47  21  35 SW10      29.86S
MCCOOK NEB     PTCLDY    41  25  53 W10       29.85F
AKRON CO       PTCLDY    49  20  31 SW15      29.90S
BURLINGTON CO  MOCLDY    37  18  46 SW6       29.91S
LIMON CO       PTCLDY    31  20  63 N7        29.94F
$$

...UNOFFICIAL OBSERVATIONS...

CITY           SKY/WX    TMP DP  RH WIND       PRES   REMARKS
COLBY KS       CLEAR     39  27  60 SW10      29.89F
LENORA KS        N/A     50  32  50 S14         N/A
LEOTI KS         N/A     48  32  53 CALM        N/A
NORTON KS      CLEAR     37  30  75 SW8       29.84F
OBERLIN KS     FAIR      41  27  56 SW6       29.86F
SHARON SPRINGS   N/A     42  22  45 S8          N/A
ST FRANCIS KS  MOCLDY    41  19  42 SW3       29.88F
TRIBUNE KS     CLEAR     43  23  45 SE9       29.91F
WAKEENEY KS      N/A     50  23  34 MISG        N/A
TRENTON NEB      N/A     49  32  52 SW8         N/A
KIT CARSON CO    N/A     45  17  32 MISG        N/A
$$



USA.gov is the U.S. government's official web portal to all federal, state and local government web resources and services.